Las Vegas, NM

8:59 AM MDT on April 25, 2017 (GMT -0600)
Las Vegas Municipal

Weather History for KLVS - February, 2013

Change the Weather History Date:

Friday, February 8, 2013

  Actual Average Record
Temperature  
Mean Temperature 31 °F -  
Max Temperature 41 °F 43 °F 68 °F (1957)
Min Temperature 21 °F 18 °F -9 °F (2011)
Degree Days  
Heating Degree Days 34    
Moisture  
Dew Point 19 °F    
Average Humidity 59    
Maximum Humidity 69    
Minimum Humidity 46    
Precipitation  
Precipitation 0.00 in - - ()
Sea Level Pressure  
Sea Level Pressure 30.02 in    
Wind  
Wind Speed 13 mph (SSW)    
Max Wind Speed 24 mph    
Max Gust Speed 30 mph    
Visibility 10 miles    
Events      
Averages and records for this station are not official NWS values.
T = Trace of Precipitation, MM = Missing Value Source: NWS Daily Summary

Daily Weather History Graph

Daily Weather History Graph

Search for Another Location

Airport or City:

Trip Planner

Search our weather history database for the weather conditions in past years. The results will help you decide how hot, cold, wet, or windy it might be!

Date:

Astronomy

Feb. 08, 2013 Rise Set
Actual Time 6:54 AM MST 5:35 PM MST
Civil Twilight 6:27 AM MST 6:02 PM MST
Nautical Twilight 5:57 AM MST 6:32 PM MST
Astronomical Twilight 5:27 AM MST 7:02 PM MST
Moon 5:23 AM MST (2/8) 4:13 PM MST (2/8)
Length of Visible Light 11h 34m
Length of Day
10h 41m
Waning Crescent, 3% of the Moon is Illuminated
Feb 8
Waning Crescent
Feb 10
New
Feb 17
First Quarter
Feb 25
Full
Mar 4
Last Quarter

Hourly Weather History & Observations

Time (MST) Temp. Windchill Dew Point Humidity Pressure Visibility Wind Dir Wind Speed Gust Speed Precip Events Conditions
12:53 AM 25.0 °F 16.3 °F 14.0 °F 63% 30.14 in 10.0 mi SW 8.1 mph - N/A   Clear
1:53 AM 21.9 °F 11.7 °F 12.9 °F 68% 30.14 in 10.0 mi SSW 9.2 mph - N/A   Clear
2:53 AM 23.0 °F 11.7 °F 12.9 °F 65% 30.12 in 10.0 mi SSW 11.5 mph - N/A   Clear
3:53 AM 21.9 °F 11.7 °F 12.9 °F 68% 30.12 in 10.0 mi SSW 9.2 mph - N/A   Clear
4:53 AM 24.1 °F 16.0 °F 14.0 °F 65% 30.11 in 10.0 mi South 6.9 mph - N/A   Clear
5:53 AM 21.9 °F 11.7 °F 12.9 °F 68% 30.14 in 10.0 mi SSW 9.2 mph - N/A   Clear
6:53 AM 24.1 °F 16.0 °F 15.1 °F 69% 30.14 in 10.0 mi SSW 6.9 mph - N/A   Clear
7:53 AM 25.0 °F 18.1 °F 15.1 °F 66% 30.15 in 10.0 mi SSW 5.8 mph - N/A   Clear
8:53 AM 30.0 °F 20.5 °F 18.0 °F 61% 30.14 in 10.0 mi South 11.5 mph - N/A   Clear
9:53 AM 33.1 °F 20.9 °F 18.0 °F 54% 30.12 in 10.0 mi South 21.9 mph - N/A   Clear
11:53 AM 36.0 °F 24.7 °F 19.0 °F 50% 30.06 in 10.0 mi South 21.9 mph 29.9 mph N/A   Clear
12:53 PM 39.0 °F 28.5 °F 19.9 °F 46% 30.00 in 10.0 mi South 23.0 mph 27.6 mph N/A   Clear
1:53 PM 39.0 °F 28.3 °F 19.9 °F 46% 29.97 in 10.0 mi South 24.2 mph - N/A   Clear
2:53 PM 41.0 °F 31.6 °F 21.9 °F 47% 29.94 in 10.0 mi South 20.7 mph 28.8 mph N/A   Clear
3:53 PM 39.9 °F 29.7 °F 21.9 °F 49% 29.94 in 10.0 mi South 23.0 mph - N/A   Partly Cloudy
4:53 PM 39.0 °F 30.3 °F 21.9 °F 50% 29.93 in 10.0 mi South 16.1 mph - N/A   Clear
5:53 PM 37.0 °F 27.7 °F 21.9 °F 54% 29.94 in 10.0 mi South 16.1 mph - N/A   Clear
6:53 PM 36.0 °F 26.3 °F 21.9 °F 57% 29.94 in 10.0 mi South 16.1 mph - N/A   Clear
7:53 PM 35.1 °F 25.2 °F 21.9 °F 59% 29.94 in 10.0 mi South 16.1 mph - N/A   Clear
8:53 PM 35.1 °F 24.8 °F 23.0 °F 61% 29.90 in 10.0 mi South 17.3 mph - N/A   Clear
9:53 PM 35.1 °F 25.2 °F 23.0 °F 61% 29.89 in 10.0 mi South 16.1 mph - N/A   Clear
10:53 PM 33.1 °F 23.9 °F 23.0 °F 66% 29.87 in 10.0 mi SSW 12.7 mph - N/A   Clear
11:53 PM 30.9 °F 22.2 °F 21.9 °F 69% 29.85 in 10.0 mi SSW 10.4 mph - N/A   Clear